SCP
0 0 0 0 0 0 0 0 0 0 0 0 0 0 0 0 0 0 0 -0 -0 0 -0 -0 -0 -0 -0 -0 -0 -0 -0 -0 -0 -0 -0 0 0 0
0 0 0 0 0 0 0 0 0 0 0 0 0 0 0 0 0 0 0 0 -0 0 -0 -0 -0 -0 -0 -0 -0 -0 -0 -0 0 -0 -0 -0 0 0
0 0 0 0 0 0 0 0 0 0 0 0 0 0 0 0 0 0 0 0 0 0 -0 -0 0 0 -0 -0 -0 -0 -0 -0 0 -0 -0 -0 -0 0
0 0 0 0 0 0 0 0 0 0 0 0 0 0 0 0 0 0 0 0 0 0 0 0 0 0 0 -0 -0 -0 -0 -0 -0 -0 0 -0 -0 0
0 0 0 0 0 0 0 0 0 0 0 0 0 0 0 0 0 0 0 0 0 0 0 0 0 0 0 0 -0 -0 -0 -0 -0 -0 0 -0 -0 -0
0 0 0 0 0 0 0 0 0 0 0 0 0 0 0 0 0 0 0 0 0 0 -0 0 0 0 0 -0 -0 -0 -0 0 -0 -0 -0 -0 -0 -0
0 0 0 0 0 0 0 0 0 0 0 0 0 0 0 0 0 0 0 0 0 0 0 0 -0 0 0 0 0 -0 -0 0 0 -0 -0 0 -0 -0
0 0 0 0 0 0 0 0 0 0 0 -0 0 0 0 0 0 0 0 0 0 0 0 0 0 -0 0 0 -0 -0 -0 -0 0 0 -0 -0 -0 -0
0 0 0 0 0 0 0 0 0 0 0 -0 0 0 0 0 0 0 0 0 0 0 0 0 0 0 0 0 -0 -0 -0 -0 -0 -0 -0 -0 -0 -0
0 0 0 0 0 0 0 0 0 0 0 -0 0 0 0 0 0 0 0 0 0 0 0 0 0 0 0 -0 -0 -0 -0 -0 -0 -0 -0 -0 -0 -0
0 0 0 0 0 0 0 0 0 0 0 -0 0 0 0 0 0 0 0 0 0 0 0 0 0 0 0 0 0 0 0 -0 -0 -0 -0 -0 -0 -0
0 0 0 0 0 0 0 0 0 0 0 -0 -0 0 0 0 0 0 0 0 0 0 0 0 0 0 0 0 0 -0 0 -0 -0 -0 -0 -0 -0 -0
0 0 0 0 0 0 0 0 0 0 0 -0 -0 -0 0 0 0 0 0 0 0 0 0 0 0 0 0 0 0 0 0 0 -0 -0 -0 -0 -0 -0
0 0 0 0 0 0 0 0 0 0 0 0 -0 -0 -0 0 0 0 0 0 0 0 0 0 0 0 0 0 0 0 0 0 0 0 -0 -0 -0 -0
0 0 0 0 0 0 0 0 0 0 0 0 0 -0 -0 -0 -0 0 0 0 0 0 0 0 0 0 0 0 0 0 0 0 0 0 0 0 0 -0
0 0 0 0 0 0 0 0 0 0 0 0 0 -0 -0 -0 -0 -0 0 0 0 0 0 0 0 0 0 0 0 0 0 0 0 0 0 0 0 0
0 0 0 0 0 0 0 0 0 0 0 0 0 0 -0 -0 -0 -0 -0 0 0 0 0 0 0 0 0 0 0 0 0 0 0 0 0 0 0 0
0 0 0 0 0 0 0 0 0 0 0 0 0 0 0 0 0 -0 -0 0 0 0 0 0 0 0 0 0 0 0 0 0 0 0 0 0 0 -0
0 0 0 0 0 0 0 0 0 0 0 0 0 0 0 0 0 0 0 0 0 0 0 0 0 0 0 0 0 0 0 0 0 0 0 0 0 0
0 0 0 0 0 0 0 0 0 0 0 0 0 0 0 0 0 0 0 0 0 0 0 0 0 0 0 0 0 0 0 0 0 -0 -0 0 0 0
0 0 0 0 0 0 0 0 0 0 0 0 0 0 0 0 0 0 0 0 0 0 0 0 0 0 0 0 0 0 0 0 0 0 -0 0 0 -0
0 0 0 0 0 0 0 0 0 0 0 0 0 0 0 0 0 0 0 0 0 0 0 0 0 0 0 0 0 0 0 0 0 -0 -0 -0 0 -0
0 0 0 0 0 0 0 0 0 0 0 0 0 0 0 0 0 0 0 0 0 0 0 0 0 0 0 0 0 0 0 0 0 0 0 0 -0 -0
Wind_Speed_500mb
32 32 31 27 26 26 28 28 28 38 49 32 38 40 49 51 44 53 41 39 28 29 30 34 26 27 34 41 44 52 61 65 72 65 74 87 42 55
35 34 32 28 27 27 30 26 28 34 40 38 40 40 44 39 39 43 42 39 33 27 31 26 28 26 33 39 43 47 49 56 69 75 68 84 64 30
37 37 36 33 31 28 28 26 31 32 37 43 37 35 38 38 37 39 37 34 30 29 27 22 23 27 36 42 42 40 44 49 64 65 75 70 91 29
38 39 38 34 34 32 28 29 31 31 32 45 39 37 34 36 35 37 40 33 28 30 28 28 29 32 35 36 39 37 39 43 52 59 73 68 80 75
42 41 39 37 35 30 28 29 29 28 29 33 40 36 32 31 33 30 40 36 22 36 30 29 31 31 29 32 37 45 36 41 42 50 60 69 68 82
46 44 42 41 38 34 30 30 27 29 29 29 34 36 30 29 28 34 46 40 28 30 30 28 29 29 33 33 36 37 44 43 37 41 51 59 70 71
51 48 45 42 40 38 37 30 27 27 27 28 32 31 29 29 29 34 47 45 34 33 34 25 26 24 30 31 34 36 37 44 43 34 43 54 57 64
54 51 47 44 42 40 39 34 31 32 29 29 30 30 30 30 32 34 42 44 41 34 34 29 25 22 26 29 33 35 35 39 49 38 33 37 45 51
56 52 50 47 41 41 39 35 33 35 34 31 31 30 35 31 32 36 34 35 34 28 33 26 27 18 21 27 37 35 31 34 41 48 35 32 40 38
59 55 52 48 44 39 39 36 32 30 31 31 31 31 30 27 27 30 32 31 31 21 25 21 28 25 21 23 34 34 36 39 37 39 41 36 35 39
62 57 54 50 44 38 41 38 34 30 30 31 29 28 27 25 24 27 23 20 24 24 21 28 30 32 9 19 22 27 31 34 38 38 36 35 30 35
65 61 56 51 43 39 42 39 38 32 32 32 28 27 24 23 21 20 21 20 17 12 17 26 21 27 14 9 16 22 20 31 35 35 35 32 27 28
68 64 58 48 43 40 41 40 36 26 32 33 29 27 24 21 21 19 18 18 16 14 21 24 16 19 14 19 16 23 23 30 28 33 34 36 38 30
69 63 57 47 43 40 40 37 36 32 29 28 28 26 24 20 21 18 17 15 16 16 17 18 19 18 17 16 14 18 17 27 26 27 28 31 34 40
67 64 56 46 43 42 41 38 36 33 31 31 28 25 24 22 21 19 16 15 15 15 16 16 17 18 12 10 12 15 17 14 24 23 26 28 30 32
67 64 58 51 49 47 43 42 42 36 37 32 29 25 27 26 21 19 16 14 12 13 15 15 16 15 9 10 9 13 17 16 21 21 17 18 26 29
67 62 59 58 58 57 55 52 47 50 43 36 32 30 30 28 25 20 18 15 12 11 10 14 15 13 9 5 6 11 12 12 14 13 14 17 24 22
65 68 61 59 63 64 62 59 56 54 50 41 37 34 32 30 28 24 20 18 15 14 11 10 9 7 9 10 8 8 11 12 15 14 15 14 15 21
71 74 73 69 68 66 65 64 60 53 49 50 46 39 38 34 32 28 24 21 18 16 13 11 7 2 2 3 8 9 8 12 13 11 11 11 10 13
72 78 80 76 74 68 67 65 63 57 54 53 51 47 41 41 37 33 29 26 22 19 15 12 9 6 5 4 4 10 10 10 8 8 9 9 7 16
74 79 79 75 73 71 65 66 62 62 56 54 55 56 49 47 43 37 33 31 27 23 18 14 14 10 8 5 4 4 15 15 7 5 6 6 3 5
74 76 78 73 69 68 66 65 62 63 60 56 57 59 55 52 48 42 38 34 30 26 22 20 15 12 9 6 5 5 3 10 7 6 8 7 5 2
78 75 78 75 66 64 64 65 64 64 63 59 59 61 60 56 52 46 41 37 33 29 25 21 17 14 13 11 10 8 5 4 0 1 8 9 12 16
Wind_Direction_500mb
280 282 281 279 272 276 281 284 293 300 312 322 329 322 327 333 330 329 329 320 329 319 308 316 332 336 326 324 312 324 325 337 338 336 343 348 314 284
276 279 279 278 275 274 284 278 277 281 286 309 319 321 320 332 328 332 330 332 322 320 322 330 336 323 319 318 329 332 329 332 338 346 348 358 350 295
273 277 280 280 277 274 275 275 274 280 285 300 311 316 319 326 331 334 333 330 321 320 325 323 314 313 326 334 339 335 340 338 341 353 350 4 10 336
271 272 278 278 278 279 274 271 273 282 284 297 311 317 320 326 329 337 337 336 324 322 322 322 319 314 326 343 342 338 348 345 346 354 353 9 14 14
269 269 274 273 274 271 267 271 276 282 286 292 304 312 315 323 329 334 350 345 329 334 334 335 334 337 343 357 348 352 356 348 348 354 3 8 14 19
269 269 270 272 273 271 267 269 274 280 286 290 299 307 310 319 325 333 357 356 343 340 346 335 339 349 346 359 7 9 4 346 352 358 6 12 10 24
269 270 270 271 273 273 269 267 270 276 283 287 295 302 305 312 325 334 344 356 358 353 353 354 352 351 352 2 6 4 7 2 2 2 16 12 14 20
267 270 271 270 272 275 273 271 257 262 271 279 290 293 299 303 319 338 336 347 352 357 349 357 353 355 357 3 1 12 9 16 7 11 15 24 14 27
264 266 267 270 271 273 272 271 257 256 261 269 281 286 291 308 314 327 333 336 338 338 349 354 357 350 360 357 13 17 17 22 19 14 17 22 24 26
262 264 265 266 269 271 270 268 256 253 263 269 279 287 291 300 304 315 318 334 340 334 344 327 353 348 358 359 0 15 24 19 23 23 17 20 27 37
260 261 263 264 266 267 265 266 255 251 259 263 272 281 288 291 296 305 316 317 332 323 335 340 341 348 324 352 350 1 15 11 18 21 29 23 29 31
256 259 260 260 262 259 260 262 259 255 253 262 266 278 283 284 288 293 303 311 318 327 317 339 334 346 341 333 342 352 10 11 12 21 30 36 42 30
253 256 259 259 257 254 255 255 254 247 246 254 256 269 276 276 280 287 292 302 306 291 296 335 333 339 325 326 342 356 11 14 11 16 27 39 50 54
252 256 257 256 252 250 249 251 243 245 244 244 248 257 265 265 271 277 289 297 306 308 315 332 337 336 333 335 348 2 2 17 18 20 30 41 45 43
250 253 255 254 248 245 242 240 235 232 235 239 241 249 254 255 264 274 284 296 308 315 326 333 340 341 336 330 339 354 23 5 18 30 29 37 46 47
247 249 250 247 244 244 239 232 232 227 230 235 238 241 247 253 255 262 270 282 296 298 325 334 341 350 335 332 5 1 14 22 18 35 42 41 44 48
245 241 242 237 235 232 231 229 227 229 231 233 234 235 243 246 248 251 258 265 269 269 282 320 338 347 356 7 347 1 11 21 31 44 61 54 55 50
246 236 233 233 235 237 234 231 231 235 238 232 232 230 233 238 241 245 246 251 253 265 275 295 322 338 338 345 10 5 7 16 21 33 53 77 54 50
237 238 237 236 237 238 238 238 237 238 239 238 234 229 230 231 236 239 240 242 248 252 260 274 293 293 263 280 312 9 11 5 21 30 43 76 96 79
233 234 238 239 242 240 240 238 237 237 235 238 234 227 226 228 230 232 234 236 239 244 253 264 270 251 230 244 259 306 5 25 27 26 25 42 69 37
236 237 238 240 242 244 239 239 237 237 238 237 233 227 225 226 228 228 231 233 236 239 242 251 259 262 251 259 349 343 330 20 50 87 42 76 96 39
241 243 243 242 241 242 242 239 235 235 234 233 231 228 226 227 227 227 227 231 231 234 235 243 255 254 244 233 224 240 274 329 24 58 62 60 66 85
243 246 247 246 243 243 242 239 234 234 235 233 228 225 224 225 225 226 226 227 229 229 231 234 238 239 237 236 230 248 283 325 34 44 348 54 83 88
Wind_Speed_850mb
32 32 31 27 26 26 28 28 28 38 49 32 38 40 49 51 44 53 41 39 28 29 30 34 26 27 34 41 44 52 61 65 72 65 74 87 42 55
35 34 32 28 27 27 30 26 28 34 40 38 40 40 44 39 39 43 42 39 33 27 31 26 28 26 33 39 43 47 49 56 69 75 68 84 64 30
37 37 36 33 31 28 28 26 31 32 37 43 37 35 38 38 37 39 37 34 30 29 27 22 23 27 36 42 42 40 44 49 64 65 75 70 91 29
38 39 38 34 34 32 28 29 31 31 32 45 39 37 34 36 35 37 40 33 28 30 28 28 29 32 35 36 39 37 39 43 52 59 73 68 80 75
42 41 39 37 35 30 28 29 29 28 29 33 40 36 32 31 33 30 40 36 22 36 30 29 31 31 29 32 37 45 36 41 42 50 60 69 68 82
46 44 42 41 38 34 30 30 27 29 29 29 34 36 30 29 28 34 46 40 28 30 30 28 29 29 33 33 36 37 44 43 37 41 51 59 70 71
51 48 45 42 40 38 37 30 27 27 27 28 32 31 29 29 29 34 47 45 34 33 34 25 26 24 30 31 34 36 37 44 43 34 43 54 57 64
54 51 47 44 42 40 39 34 31 32 29 29 30 30 30 30 32 34 42 44 41 34 34 29 25 22 26 29 33 35 35 39 49 38 33 37 45 51
56 52 50 47 41 41 39 35 33 35 34 31 31 30 35 31 32 36 34 35 34 28 33 26 27 18 21 27 37 35 31 34 41 48 35 32 40 38
59 55 52 48 44 39 39 36 32 30 31 31 31 31 30 27 27 30 32 31 31 21 25 21 28 25 21 23 34 34 36 39 37 39 41 36 35 39
62 57 54 50 44 38 41 38 34 30 30 31 29 28 27 25 24 27 23 20 24 24 21 28 30 32 9 19 22 27 31 34 38 38 36 35 30 35
65 61 56 51 43 39 42 39 38 32 32 32 28 27 24 23 21 20 21 20 17 12 17 26 21 27 14 9 16 22 20 31 35 35 35 32 27 28
68 64 58 48 43 40 41 40 36 26 32 33 29 27 24 21 21 19 18 18 16 14 21 24 16 19 14 19 16 23 23 30 28 33 34 36 38 30
69 63 57 47 43 40 40 37 36 32 29 28 28 26 24 20 21 18 17 15 16 16 17 18 19 18 17 16 14 18 17 27 26 27 28 31 34 40
67 64 56 46 43 42 41 38 36 33 31 31 28 25 24 22 21 19 16 15 15 15 16 16 17 18 12 10 12 15 17 14 24 23 26 28 30 32
67 64 58 51 49 47 43 42 42 36 37 32 29 25 27 26 21 19 16 14 12 13 15 15 16 15 9 10 9 13 17 16 21 21 17 18 26 29
67 62 59 58 58 57 55 52 47 50 43 36 32 30 30 28 25 20 18 15 12 11 10 14 15 13 9 5 6 11 12 12 14 13 14 17 24 22
65 68 61 59 63 64 62 59 56 54 50 41 37 34 32 30 28 24 20 18 15 14 11 10 9 7 9 10 8 8 11 12 15 14 15 14 15 21
71 74 73 69 68 66 65 64 60 53 49 50 46 39 38 34 32 28 24 21 18 16 13 11 7 2 2 3 8 9 8 12 13 11 11 11 10 13
72 78 80 76 74 68 67 65 63 57 54 53 51 47 41 41 37 33 29 26 22 19 15 12 9 6 5 4 4 10 10 10 8 8 9 9 7 16
74 79 79 75 73 71 65 66 62 62 56 54 55 56 49 47 43 37 33 31 27 23 18 14 14 10 8 5 4 4 15 15 7 5 6 6 3 5
74 76 78 73 69 68 66 65 62 63 60 56 57 59 55 52 48 42 38 34 30 26 22 20 15 12 9 6 5 5 3 10 7 6 8 7 5 2
78 75 78 75 66 64 64 65 64 64 63 59 59 61 60 56 52 46 41 37 33 29 25 21 17 14 13 11 10 8 5 4 0 1 8 9 12 16
Wind_Direction_850mb
280 282 281 279 272 276 281 284 293 300 312 322 329 322 327 333 330 329 329 320 329 319 308 316 332 336 326 324 312 324 325 337 338 336 343 348 314 284
276 279 279 278 275 274 284 278 277 281 286 309 319 321 320 332 328 332 330 332 322 320 322 330 336 323 319 318 329 332 329 332 338 346 348 358 350 295
273 277 280 280 277 274 275 275 274 280 285 300 311 316 319 326 331 334 333 330 321 320 325 323 314 313 326 334 339 335 340 338 341 353 350 4 10 336
271 272 278 278 278 279 274 271 273 282 284 297 311 317 320 326 329 337 337 336 324 322 322 322 319 314 326 343 342 338 348 345 346 354 353 9 14 14
269 269 274 273 274 271 267 271 276 282 286 292 304 312 315 323 329 334 350 345 329 334 334 335 334 337 343 357 348 352 356 348 348 354 3 8 14 19
269 269 270 272 273 271 267 269 274 280 286 290 299 307 310 319 325 333 357 356 343 340 346 335 339 349 346 359 7 9 4 346 352 358 6 12 10 24
269 270 270 271 273 273 269 267 270 276 283 287 295 302 305 312 325 334 344 356 358 353 353 354 352 351 352 2 6 4 7 2 2 2 16 12 14 20
267 270 271 270 272 275 273 271 257 262 271 279 290 293 299 303 319 338 336 347 352 357 349 357 353 355 357 3 1 12 9 16 7 11 15 24 14 27
264 266 267 270 271 273 272 271 257 256 261 269 281 286 291 308 314 327 333 336 338 338 349 354 357 350 360 357 13 17 17 22 19 14 17 22 24 26
262 264 265 266 269 271 270 268 256 253 263 269 279 287 291 300 304 315 318 334 340 334 344 327 353 348 358 359 0 15 24 19 23 23 17 20 27 37
260 261 263 264 266 267 265 266 255 251 259 263 272 281 288 291 296 305 316 317 332 323 335 340 341 348 324 352 350 1 15 11 18 21 29 23 29 31
256 259 260 260 262 259 260 262 259 255 253 262 266 278 283 284 288 293 303 311 318 327 317 339 334 346 341 333 342 352 10 11 12 21 30 36 42 30
253 256 259 259 257 254 255 255 254 247 246 254 256 269 276 276 280 287 292 302 306 291 296 335 333 339 325 326 342 356 11 14 11 16 27 39 50 54
252 256 257 256 252 250 249 251 243 245 244 244 248 257 265 265 271 277 289 297 306 308 315 332 337 336 333 335 348 2 2 17 18 20 30 41 45 43
250 253 255 254 248 245 242 240 235 232 235 239 241 249 254 255 264 274 284 296 308 315 326 333 340 341 336 330 339 354 23 5 18 30 29 37 46 47
247 249 250 247 244 244 239 232 232 227 230 235 238 241 247 253 255 262 270 282 296 298 325 334 341 350 335 332 5 1 14 22 18 35 42 41 44 48
245 241 242 237 235 232 231 229 227 229 231 233 234 235 243 246 248 251 258 265 269 269 282 320 338 347 356 7 347 1 11 21 31 44 61 54 55 50
246 236 233 233 235 237 234 231 231 235 238 232 232 230 233 238 241 245 246 251 253 265 275 295 322 338 338 345 10 5 7 16 21 33 53 77 54 50
237 238 237 236 237 238 238 238 237 238 239 238 234 229 230 231 236 239 240 242 248 252 260 274 293 293 263 280 312 9 11 5 21 30 43 76 96 79
233 234 238 239 242 240 240 238 237 237 235 238 234 227 226 228 230 232 234 236 239 244 253 264 270 251 230 244 259 306 5 25 27 26 25 42 69 37
236 237 238 240 242 244 239 239 237 237 238 237 233 227 225 226 228 228 231 233 236 239 242 251 259 262 251 259 349 343 330 20 50 87 42 76 96 39
241 243 243 242 241 242 242 239 235 235 234 233 231 228 226 227 227 227 227 231 231 234 235 243 255 254 244 233 224 240 274 329 24 58 62 60 66 85
243 246 247 246 243 243 242 239 234 234 235 233 228 225 224 225 225 226 226 227 229 229 231 234 238 239 237 236 230 248 283 325 34 44 348 54 83 88